timestamp,surface_pressure_avg,surface_temp_avg,battery_voltage,lat,long
2021-02-16 00:09:01+00:00,294.733,1.45,12.73,47.84626,-54.09684
2021-02-16 00:19:01+00:00,302.4114,1.44,12.65,47.84626,-54.09684
2021-02-16 00:29:01+00:00,308.1547,1.45,12.65,47.84626,-54.09684
2021-02-16 00:39:01+00:00,312.6463,1.43,12.65,47.84626,-54.09684
2021-02-16 00:49:01+00:00,317.0964,1.4,12.65,47.84626,-54.09684
2021-02-16 00:59:01+00:00,319.313,1.4,12.65,47.84626,-54.09684
2021-02-16 01:09:01+00:00,323.5213,1.4,12.65,47.84626,-54.09684
2021-02-16 01:19:01+00:00,331.5030000000001,1.4,12.57,47.84626,-54.09684
2021-02-16 01:29:01+00:00,332.8812,1.4,12.57,47.84626,-54.09684
2021-02-16 01:39:01+00:00,332.1647,1.4,12.57,47.84626,-54.09684
2021-02-16 01:49:01+00:00,343.7263,1.4,12.57,47.84626,-54.09684
2021-02-16 01:59:01+00:00,349.07300000000015,1.4,12.57,47.84626,-54.09684
2021-02-16 02:09:01+00:00,342.0646,1.4,12.57,47.84626,-54.09684
2021-02-16 02:19:01+00:00,337.80800000000005,1.4,12.57,47.84626,-54.09684
2021-02-16 02:29:01+00:00,342.2712,1.42,12.57,47.84626,-54.09684
2021-02-16 02:39:01+00:00,343.5596,1.42,12.57,47.84626,-54.09684
2021-02-16 02:49:01+00:00,334.3096,1.44,12.57,47.84626,-54.09684
2021-02-16 02:59:01+00:00,330.4596,1.47,12.57,47.84626,-54.09684
2021-02-16 03:09:01+00:00,332.798,1.46,12.57,47.84626,-54.09684
2021-02-16 03:19:01+00:00,334.30800000000005,1.45,12.57,47.84626,-54.09684
2021-02-16 03:29:01+00:00,327.6064,1.4,12.57,47.84626,-54.09684
2021-02-16 03:39:01+00:00,329.403,1.4,12.57,47.84626,-54.09684
2021-02-16 03:49:01+00:00,337.0496,1.4,12.57,47.84626,-54.09684
2021-02-16 03:59:01+00:00,337.8362,1.4,12.57,47.84626,-54.09684
2021-02-16 04:09:01+00:00,329.5496,1.4,12.57,47.84626,-54.09684
2021-02-16 04:19:01+00:00,323.7813,1.4,12.49,47.84626,-54.09684
2021-02-16 04:29:01+00:00,320.018,1.4,12.49,47.84626,-54.09684
2021-02-16 04:39:01+00:00,316.3697,1.4,12.49,47.84626,-54.09684
2021-02-16 04:49:01+00:00,315.5746,1.4,12.49,47.84626,-54.09684
2021-02-16 04:59:01+00:00,311.2047,1.4,12.49,47.84626,-54.09684
2021-02-16 05:09:01+00:00,300.2714,1.4,12.49,47.84626,-54.09684
2021-02-16 05:19:01+00:00,292.6514,1.4,12.49,47.84626,-54.09684
2021-02-16 05:29:01+00:00,291.188,1.4,12.49,47.84626,-54.09684
2021-02-16 05:39:01+00:00,281.9564,1.4,12.49,47.84626,-54.09684
2021-02-16 05:49:01+00:00,276.0514,1.4,12.49,47.84626,-54.09684
2021-02-16 05:59:01+00:00,272.4948,1.4,12.49,47.84626,-54.09684
2021-02-16 06:09:01+00:00,257.3547,1.4,12.49,47.84626,-54.09684
2021-02-16 06:19:01+00:00,237.2964,1.4,12.49,47.84626,-54.09684
2021-02-16 06:29:01+00:00,230.4047,1.4,12.49,47.84626,-54.09684
2021-02-16 06:39:01+00:00,225.5348,1.4,12.49,47.84626,-54.09684
2021-02-16 06:49:01+00:00,211.8981,1.4,12.49,47.84626,-54.09684
2021-02-16 06:59:01+00:00,204.6648,1.4,12.49,47.84626,-54.09684
2021-02-16 07:09:01+00:00,207.7248,1.4,12.49,47.84626,-54.09684
2021-02-16 07:19:01+00:00,205.3998,1.4,12.49,47.84626,-54.09684
2021-02-16 07:29:01+00:00,198.6014,1.4,12.49,47.84626,-54.09684
2021-02-16 07:39:01+00:00,199.1864,1.4,12.49,47.84626,-54.09684
2021-02-16 07:49:01+00:00,195.5565,1.4,12.49,47.84626,-54.09684
2021-02-16 07:59:01+00:00,182.4932,1.4,12.49,47.84626,-54.09684
2021-02-16 08:09:01+00:00,178.8948,1.39,12.49,47.84626,-54.09684
2021-02-16 08:19:01+00:00,192.3131,1.39,12.49,47.84626,-54.09684
2021-02-16 08:29:01+00:00,195.2065,1.4,12.49,47.84626,-54.09684
2021-02-16 08:39:01+00:00,186.3531,1.39,12.49,47.84626,-54.09684
2021-02-16 08:49:01+00:00,194.8582,1.37,12.49,47.84626,-54.09684
2021-02-16 08:59:01+00:00,204.9081,1.37,12.49,47.84626,-54.09684
2021-02-16 09:09:01+00:00,197.5448,1.39,12.49,47.84626,-54.09684
2021-02-16 09:19:01+00:00,199.6181,1.39,12.49,47.84626,-54.09684
2021-02-16 09:29:01+00:00,212.8297,1.37,12.49,47.84626,-54.09684
2021-02-16 09:39:01+00:00,214.5831,1.37,12.49,47.84626,-54.09684
2021-02-16 09:49:01+00:00,213.9998,1.35,12.49,47.84626,-54.09684
2021-02-16 09:59:01+00:00,223.4464,1.32,12.49,47.84626,-54.09684
2021-02-16 10:09:01+00:00,226.8898,1.3,12.49,47.84626,-54.09684
2021-02-16 10:19:01+00:00,227.6031,1.3,12.49,47.84626,-54.09684
2021-02-16 10:29:01+00:00,234.6247,1.3,12.49,47.84626,-54.09684
2021-02-16 10:39:01+00:00,235.9615,1.3,12.49,47.84626,-54.09684
2021-02-16 10:49:01+00:00,238.3131,1.3,12.49,47.84626,-54.09684
2021-02-16 10:59:01+00:00,246.3347,1.3,12.49,47.84626,-54.09684
2021-02-16 11:09:01+00:00,250.3464,1.3,12.49,47.84626,-54.09684
2021-02-16 11:19:01+00:00,249.3931,1.3,12.57,47.84626,-54.09684
2021-02-16 11:29:01+00:00,254.2564,1.26,12.57,47.84626,-54.09684
2021-02-16 11:39:01+00:00,261.4181,1.25,12.57,47.84626,-54.09684
2021-02-16 11:49:01+00:00,265.9764,1.26,12.57,47.84626,-54.09684
2021-02-16 11:59:01+00:00,268.3231,1.28,12.57,47.84626,-54.09684
2021-02-16 12:09:01+00:00,271.1981,1.29,12.57,47.84626,-54.09684
2021-02-16 12:19:01+00:00,278.5248,1.2,13.29,47.84626,-54.09684
2021-02-16 12:29:01+00:00,286.5181,1.2,13.29,47.84626,-54.09684
2021-02-16 12:39:01+00:00,291.1614,1.2,13.29,47.84626,-54.09684
2021-02-16 12:49:01+00:00,300.4064,1.2,13.29,47.84626,-54.09684
2021-02-16 12:59:01+00:00,315.3097,1.2,13.29,47.84626,-54.09684
2021-02-16 13:09:01+00:00,324.2713,1.2,13.29,47.84626,-54.09684
2021-02-16 13:19:01+00:00,326.3096,1.2,14.24,47.84626,-54.09684
2021-02-16 13:29:01+00:00,334.5963,1.25,14.24,47.84626,-54.09684
2021-02-16 13:39:01+00:00,341.0863,1.27,14.24,47.84626,-54.09684
2021-02-16 13:49:01+00:00,344.5746,1.3,14.24,47.84626,-54.09684
2021-02-16 13:59:01+00:00,353.2146,1.3,14.24,47.84626,-54.09684
2021-02-16 14:09:01+00:00,361.2396,1.29,14.24,47.84626,-54.09684
2021-02-16 14:19:01+00:00,359.18300000000005,1.29,14.64,47.84626,-54.09684
2021-02-16 14:29:01+00:00,351.5896,1.3,14.64,47.84626,-54.09684
2021-02-16 14:39:01+00:00,350.2447,1.3,14.64,47.84626,-54.09684
2021-02-16 14:49:01+00:00,344.4147,1.32,14.64,47.84626,-54.09684
2021-02-16 14:59:01+00:00,337.9363,1.36,14.64,47.84626,-54.09684
2021-02-16 15:09:01+00:00,333.8230000000001,1.37,14.64,47.84626,-54.09684
2021-02-16 15:19:01+00:00,327.9646,1.34,14.64,47.84626,-54.09684
2021-02-16 15:29:01+00:00,327.6296,1.32,14.64,47.84626,-54.09684
2021-02-16 15:39:01+00:00,329.5997,1.3,14.64,47.84626,-54.09684
2021-02-16 15:49:01+00:00,334.9147,1.3,14.64,47.84626,-54.09684
2021-02-16 15:59:01+00:00,328.1247,1.3,14.64,47.84626,-54.09684
2021-02-16 16:09:01+00:00,327.4681,1.33,14.64,47.84626,-54.09684
2021-02-16 16:19:01+00:00,337.7313,1.35,14.48,47.84626,-54.09684
2021-02-16 16:29:01+00:00,337.0847,1.37,14.48,47.84626,-54.09684
2021-02-16 16:39:01+00:00,322.5547,1.39,14.48,47.84626,-54.09684
2021-02-16 16:49:01+00:00,319.558,1.4,14.48,47.84626,-54.09684
2021-02-16 16:59:01+00:00,328.36300000000006,1.4,14.48,47.84626,-54.09684
2021-02-16 17:09:01+00:00,326.6497,1.4,14.48,47.84626,-54.09684
2021-02-16 17:19:01+00:00,312.5179,1.4,14.32,47.84626,-54.09684
2021-02-16 17:29:01+00:00,308.5747,1.4,14.32,47.84626,-54.09684
2021-02-16 17:39:01+00:00,306.1014,1.4,14.32,47.84626,-54.09684
2021-02-16 17:49:01+00:00,286.8713,1.4,14.32,47.84626,-54.09684
2021-02-16 17:59:01+00:00,276.118,1.4,14.32,47.84626,-54.09684
2021-02-16 18:09:01+00:00,277.1631,1.4,14.32,47.84626,-54.09684
2021-02-16 18:19:01+00:00,274.3464,1.4,14.56,47.84626,-54.09684
2021-02-16 18:29:01+00:00,259.0847,1.42,14.56,47.84626,-54.09684
2021-02-16 18:39:01+00:00,246.7681,1.45,14.56,47.84626,-54.09684
2021-02-16 18:49:01+00:00,240.2564,1.47,14.56,47.84626,-54.09684
2021-02-16 18:59:01+00:00,232.2314,1.48,14.56,47.84626,-54.09684
2021-02-16 19:09:01+00:00,222.6664,1.48,14.56,47.84626,-54.09684
2021-02-16 19:19:01+00:00,212.7248,1.48,14.08,47.84626,-54.09684
2021-02-16 19:29:01+00:00,206.4131,1.48,14.08,47.84626,-54.09684
2021-02-16 19:39:01+00:00,200.6781,1.49,14.08,47.84626,-54.09684
2021-02-16 19:49:01+00:00,193.5665,1.49,14.08,47.84626,-54.09684
2021-02-16 19:59:01+00:00,194.2031,1.49,14.08,47.84626,-54.09684
2021-02-16 20:09:01+00:00,199.1448,1.5,14.08,47.84626,-54.09684
2021-02-16 20:19:01+00:00,196.3781,1.5,13.76,47.84626,-54.09684
2021-02-16 20:29:01+00:00,194.1348,1.5,13.76,47.84626,-54.09684
2021-02-16 20:39:01+00:00,203.8881,1.5,13.76,47.84626,-54.09684
2021-02-16 20:49:01+00:00,207.5048,1.5,13.76,47.84626,-54.09684
2021-02-16 20:59:01+00:00,203.5498,1.5,13.76,47.84626,-54.09684
2021-02-16 21:09:01+00:00,204.3731,1.5,13.76,47.84626,-54.09684
2021-02-16 21:19:01+00:00,207.9165,1.5,13.37,47.84626,-54.09684
2021-02-16 21:29:01+00:00,214.4131,1.5,13.37,47.84626,-54.09684
2021-02-16 21:39:01+00:00,218.1647,1.5,13.37,47.84626,-54.09684
2021-02-16 21:49:01+00:00,223.0514,1.5,13.37,47.84626,-54.09684
2021-02-16 21:59:01+00:00,230.8914,1.5,13.37,47.84626,-54.09684
2021-02-16 22:09:01+00:00,235.5132,1.52,13.37,47.84626,-54.09684
2021-02-16 22:19:01+00:00,237.3949,1.54,12.97,47.84626,-54.09684
2021-02-16 22:29:01+00:00,241.9531,1.55,12.97,47.84626,-54.09684
2021-02-16 22:39:01+00:00,247.6448,1.57,12.97,47.84626,-54.09684
2021-02-16 22:49:01+00:00,248.4898,1.6,12.97,47.84626,-54.09684
2021-02-16 22:59:01+00:00,250.6464,1.6,12.97,47.84626,-54.09684
2021-02-16 23:09:01+00:00,252.9964,1.6,12.97,47.84626,-54.09684
2021-02-16 23:19:01+00:00,254.1714,1.6,12.65,47.84626,-54.09684
2021-02-16 23:29:01+00:00,259.3964,1.6,12.65,47.84626,-54.09684
2021-02-16 23:39:01+00:00,267.5431,1.6,12.65,47.84626,-54.09684
2021-02-16 23:49:01+00:00,269.4347,1.6,12.65,47.84626,-54.09684
2021-02-16 23:59:01+00:00,272.6798,1.6,12.65,47.84626,-54.09684
